Weather History for Los Alamitos, CA

Change the Weather History Date:

Monday, October 7, 2013

  Actual Average Record
Temperature  
Mean Temperature 68 °F -  
Max Temperature 80 °F 76 °F 97 °F (2008)
Min Temperature 55 °F 60 °F 50 °F (2011)
Cooling Degree Days 2    
Growing Degree Days 18 (Base 50)    
Moisture  
Dew Point 52 °F    
Average Humidity 61    
Maximum Humidity 100    
Minimum Humidity 28    
Precipitation  
Precipitation 0.00 in - - ()
Sea Level Pressure  
Sea Level Pressure 29.94 in    
Wind  
Wind Speed 3 mph (SSW)    
Max Wind Speed 12 mph    
Max Gust Speed -    
Visibility 10 miles    
Events      
Averages and records for this station are not official NWS values.
T = Trace of Precipitation, MM = Missing Value Source: NWS Daily Summary

Daily Weather History Graph

Daily Weather History Graph

Search for Another Location

Airport:

Trip Planner

Search our weather history database for the weather conditions in past years. The results will help you decide how hot, cold, wet, or windy it might be!

Date:

Astronomy

Oct. 07, 2013 Rise Set
Actual Time 6:51 AM PDT 6:28 PM PDT
Civil Twilight 6:26 AM PDT 6:52 PM PDT
Nautical Twilight 5:57 AM PDT 7:21 PM PDT
Astronomical Twilight 5:28 AM PDT 7:50 PM PDT
Moon 9:37 AM PDT (10/7) 8:26 PM PDT (10/7)
Length of Visible Light 12h 26m
Length of Day
11h 36m
Waxing Crescent, 9% of the Moon is Illuminated
Oct 7
Waxing Crescent
Oct 11
First Quarter
Oct 18
Full
Oct 26
Last Quarter
Nov 3
New

Hourly Weather History & Observations

Time (PDT) Temp. Dew Point Humidity Pressure Visibility Wind Dir Wind Speed Gust Speed Precip Events Conditions
12:58 AM 59.9 °F 47.1 °F 63% 29.96 in 10.0 mi Calm Calm - N/A   Clear
1:58 AM 59.0 °F 48.9 °F 69% 29.95 in 10.0 mi Calm Calm - N/A   Clear
2:58 AM 60.1 °F 46.6 °F 61% 29.95 in 10.0 mi ENE 2.3 mph - N/A   Clear
3:58 AM 59.0 °F 43.2 °F 56% 29.93 in 10.0 mi Calm Calm - N/A   Clear
4:58 AM 60.1 °F 39.6 °F 47% 29.93 in 10.0 mi ENE 4.6 mph - N/A   Clear
5:58 AM 56.8 °F 41.5 °F 57% 29.94 in 10.0 mi Calm Calm - N/A   Clear
6:58 AM 55.9 °F 41.9 °F 59% 29.96 in 10.0 mi Calm Calm - N/A   Clear
7:58 AM 63.3 °F 38.7 °F 40% 29.97 in 10.0 mi NE 3.5 mph - N/A   Clear
8:58 AM 66.7 °F 37.4 °F 34% 29.97 in 10.0 mi ENE 3.5 mph - N/A   Clear
9:58 AM 70.3 °F 51.8 °F 52% 29.98 in 10.0 mi SW 6.9 mph - N/A   Clear
10:58 AM 72.3 °F 59.9 °F 65% 29.98 in 10.0 mi SSE 4.6 mph - N/A   Clear
11:58 AM 77.4 °F 58.1 °F 51% 29.97 in 10.0 mi SW 6.9 mph - N/A   Clear
12:58 PM 78.4 °F 52.5 °F 40% 29.95 in 10.0 mi South 9.2 mph - N/A   Clear
1:58 PM 77.4 °F 56.1 °F 48% 29.93 in 10.0 mi SSW 10.4 mph - N/A   Clear
2:58 PM 78.3 °F 49.1 °F 36% 29.92 in 10.0 mi South 10.4 mph - N/A   Clear
3:58 PM 80.1 °F 43.7 °F 28% 29.90 in 10.0 mi SSW 11.5 mph - N/A   Clear
4:58 PM 76.8 °F 57.2 °F 51% 29.90 in 10.0 mi SW 11.5 mph - N/A   Clear
5:58 PM 73.9 °F 59.4 °F 60% 29.91 in 10.0 mi SSW 8.1 mph - N/A   Clear
6:58 PM 69.3 °F 54.7 °F 60% 29.92 in 10.0 mi West 5.8 mph - N/A   Clear
7:58 PM 66.7 °F 65.8 °F 97% 29.93 in 10.0 mi WNW 6.9 mph - N/A   Clear
8:58 PM 64.2 °F 64.2 °F 100% 29.94 in 10.0 mi West 3.5 mph - N/A   Clear
9:58 PM 63.1 °F 63.1 °F 100% 29.94 in 10.0 mi Calm Calm - N/A   Clear
10:58 PM 60.4 °F 60.4 °F 100% 29.95 in 10.0 mi Calm Calm - N/A   Clear
11:58 PM 60.6 °F 60.6 °F 100% 29.93 in 10.0 mi Calm Calm - N/A   Clear